Overview Statistics Trail Chart Weather Telemetry Raw packets
 

This is the latest recevied weather packets stored in our database for station/object HA2SKA-1. If no packets are shown the sender has not sent any weather packets the latest 10 day(s).

<< 17 18 19 20 21 22 23 >>
Time Temp. Humidity Pressure Rain* Wind** Luminosity Snow
1788256213 27.78° C 54% 1023.5 hPa - - - -
1788255313 27.78° C 53% 1023.4 hPa - - - -
1788254413 27.22° C 55% 1023.5 hPa - - - -
1788253526 26.67° C 57% 1023.8 hPa - - - -
1788252612 26.67° C 59% 1023.6 hPa - - - -
1788251724 26.11° C 67% 1023.8 hPa - - - -
1788250812 26.11° C 84% 1023.7 hPa - - - -
1788249912 23.33° C 97% 1023.8 hPa - - - -
1788249012 23.33° C 95% 1023.6 hPa - - - -
1788248112 23.33° C 100% 1023.6 hPa - - - -
1788247212 23.89° C 100% 1023.4 hPa - - - -
1788246312 22.22° C 100% 1023.3 hPa - - - -
1788245412 22.78° C 100% 1023.1 hPa - - - -
1788244512 22.22° C 100% 1023 hPa - - - -
1788243612 22.78° C 100% 1022.8 hPa - - - -
1788242711 21.11° C 100% 1022.6 hPa - - - -
1788241811 21.11° C 100% 1022.7 hPa - - - -
1788240911 20.56° C 100% 1022.4 hPa - - - -
1788240011 20.56° C 100% 1022.4 hPa - - - -
1788239111 20.56° C 100% 1022 hPa - - - -
1788238211 20° C 100% 1021.8 hPa - - - -
1788237311 19.44° C 100% 1021.8 hPa - - - -
1788236411 19.44° C 100% 1021.7 hPa - - - -
1788235511 19.44° C 100% 1021.5 hPa - - - -
1788234610 20.56° C 100% 1021.3 hPa - - - -

* Rain since midnight (hover to see other rain measurements)
** Current wind speed in m/s (hover to see current wind gust speed)